Theta_e
318 317 319 320 320 322 322 323 324 323 324 325 324 322 323 325 325 324 325 326 326 327 327 328 328 326 327 327 326 324 325 324 322 320 318 318 319 317 320 318 318 318 316 315 311 309 306 306 306 311 312 312 314 315 319 320 321 319 314 312 312 311 309
317 318 319 320 320 321 319 319 320 319 319 321 322 323 323 324 326 324 323 323 323 326 329 326 325 327 325 324 324 323 324 323 321 321 321 319 318 319 318 318 315 316 318 317 315 310 306 306 304 307 308 310 311 311 316 318 317 313 312 311 311 309 310
316 315 316 317 317 319 318 317 317 318 319 319 319 320 320 322 321 321 321 322 322 324 326 324 323 324 325 325 325 324 323 323 321 322 322 320 321 321 321 319 315 314 316 315 312 308 308 307 306 306 306 308 306 306 313 314 312 311 310 309 306 305 304
314 315 315 314 315 317 317 316 317 317 319 319 319 319 319 320 320 320 319 319 321 327 323 323 323 324 324 324 324 323 322 322 321 320 319 319 320 320 320 320 318 318 315 313 313 309 307 305 305 305 304 306 306 307 308 311 311 309 307 306 304 304 303
315 315 314 313 315 316 317 316 316 317 317 318 317 318 319 319 320 319 320 321 322 322 322 323 322 324 324 325 324 324 323 323 323 322 319 319 319 320 319 319 318 318 316 315 315 312 308 307 307 305 305 304 306 304 308 307 308 307 306 305 305 304 303
315 315 314 313 313 315 317 317 316 316 316 318 317 318 317 318 318 319 319 319 321 322 323 323 323 323 324 323 324 323 323 323 323 322 320 319 320 320 319 318 319 318 317 316 317 313 309 308 308 305 305 303 302 300 304 306 303 305 307 306 305 303 303
315 315 315 314 314 316 318 317 316 316 316 316 316 317 318 318 318 318 318 317 317 319 322 323 323 323 323 323 322 321 321 319 319 318 318 317 318 317 317 318 317 317 317 317 316 312 309 308 305 305 303 300 299 302 299 298 304 302 305 307 307 306 305
316 315 315 316 315 316 316 317 317 317 317 316 318 316 318 318 317 317 317 317 317 318 320 322 323 321 321 322 320 319 317 315 315 313 311 312 314 313 311 312 311 312 311 309 316 313 310 310 308 305 303 299 297 297 297 296 297 300 302 304 307 306 305
318 317 317 316 315 316 316 318 317 317 317 317 316 317 316 317 317 316 314 313 315 318 319 318 318 319 318 318 315 313 312 315 312 311 309 309 308 308 308 308 309 308 309 309 315 314 311 311 308 305 303 302 298 294 295 296 296 298 304 302 305 306 305
315 315 315 314 316 317 318 318 317 317 316 316 316 315 316 315 313 312 312 312 314 315 315 315 315 315 315 314 313 311 311 310 310 308 308 309 308 308 308 308 308 307 307 310 313 314 311 309 307 304 304 302 300 296 292 292 295 296 301 300 300 304 306
315 315 317 317 317 316 316 316 316 315 314 315 316 316 315 315 315 317 312 312 311 312 312 312 312 311 311 310 310 310 310 311 312 310 310 310 309 309 309 308 308 308 308 309 310 310 309 308 307 306 304 303 300 298 294 294 295 297 298 300 298 300 304
317 317 316 316 316 316 315 315 314 314 314 313 314 313 312 311 311 310 309 310 311 311 310 310 310 310 310 309 310 310 310 311 310 309 309 310 309 309 309 309 309 308 308 309 310 310 310 309 308 308 305 304 302 300 299 298 296 299 299 300 299 300 304
317 317 315 315 315 315 314 314 313 312 312 312 311 311 310 310 309 308 309 309 309 308 309 308 309 309 309 309 309 311 309 311 311 310 309 309 310 308 308 309 308 308 307 308 309 309 308 308 309 309 307 305 303 302 302 300 298 299 301 297 298 299 304
316 316 315 315 314 313 313 313 313 312 311 310 310 310 310 309 309 309 308 309 308 307 307 307 307 308 309 307 308 308 308 309 309 308 309 308 309 308 309 308 308 308 307 307 306 307 308 308 308 308 307 305 304 304 303 300 299 299 302 302 300 299 302
316 316 315 314 313 312 312 311 311 311 310 309 310 310 309 309 308 308 307 308 307 307 307 306 307 308 308 307 306 309 308 308 308 307 307 307 307 309 306 307 307 306 307 307 306 306 306 307 308 307 306 306 305 304 304 301 299 298 298 302 301 302 301
315 315 315 314 313 313 312 311 311 310 310 310 310 309 309 309 308 307 308 307 307 306 307 307 306 307 305 306 307 307 308 306 307 307 308 307 307 306 306 306 306 306 308 307 305 305 305 306 308 308 306 306 305 305 305 304 302 299 299 300 300 300 301
314 314 314 314 313 312 312 312 312 310 310 310 311 309 309 307 307 306 307 307 306 307 308 308 307 306 307 307 307 308 307 307 307 307 308 307 306 306 305 305 305 305 306 306 305 305 306 306 306 305 305 305 306 306 305 304 304 300 299 300 301 301 301
313 313 312 312 312 311 311 312 311 311 309 309 309 310 309 307 307 307 308 306 307 308 308 307 307 307 308 308 308 307 307 307 306 307 307 307 310 306 305 304 306 305 305 307 305 306 306 306 308 307 305 305 305 307 308 305 304 302 301 300 301 302 301
314 313 311 311 311 312 312 311 311 311 310 309 310 310 310 309 308 307 306 306 307 309 308 307 307 308 308 307 307 307 307 307 307 307 306 307 307 306 305 305 306 306 306 307 307 307 307 307 307 307 306 306 307 306 306 305 304 303 302 301 301 301 302
316 314 312 311 311 311 310 310 311 311 312 311 311 310 308 310 309 307 307 307 309 310 309 308 307 308 309 308 307 307 307 307 307 307 306 308 307 307 306 306 307 307 307 307 309 308 308 306 308 306 307 306 306 306 306 304 304 304 302 301 301 301 300
317 316 314 312 312 311 310 310 311 311 312 310 311 309 308 309 309 308 308 308 310 310 309 308 308 309 309 309 308 307 308 308 309 307 306 307 307 308 307 308 308 308 308 309 309 308 309 308 307 306 307 308 306 305 305 304 303 303 302 302 301 300 300
318 317 317 315 314 313 312 312 313 313 313 312 312 310 309 308 309 308 308 309 309 309 310 311 311 311 310 310 309 309 309 309 309 308 308 308 307 308 309 309 308 309 311 315 310 309 309 310 309 308 306 305 305 305 303 303 304 302 302 301 301 300 299
316 316 317 317 316 315 314 313 314 313 313 313 311 310 310 310 308 309 308 307 308 310 310 311 312 308 309 311 309 311 311 309 309 309 311 310 309 310 311 310 311 316 314 313 308 305 305 306 309 311 310 307 307 306 304 303 302 303 303 302 301 300 299
316 316 315 316 316 317 315 314 313 313 313 312 313 312 312 311 311 307 308 308 307 309 310 311 305 301 301 304 310 309 310 310 308 309 310 311 311 311 310 309 309 314 312 312 308 300 301 302 303 304 305 307 309 308 305 303 303 303 303 303 301 298 297
316 315 316 315 314 313 314 313 313 312 312 312 311 311 312 311 311 310 309 307 306 308 308 307 303 299 299 300 305 311 311 311 310 310 310 311 311 311 311 310 308 309 308 309 307 303 300 297 296 296 297 297 298 300 303 306 305 303 301 302 300 299 298
310 311 312 311 312 314 313 313 313 313 313 313 310 311 309 311 311 311 311 309 308 308 308 303 301 301 299 297 298 306 313 313 313 312 312 312 312 312 311 310 310 311 311 313 312 305 302 299 295 294 294 294 295 294 294 297 300 307 305 304 302 300 299
303 304 306 306 306 306 306 307 310 312 313 313 311 311 311 311 311 310 310 309 309 308 307 300 296 299 299 298 297 298 311 313 314 314 314 314 313 312 312 311 310 310 309 310 310 307 304 301 298 297 297 296 295 296 295 295 295 298 302 306 305 304 303
300 301 302 303 302 303 303 303 304 306 308 310 310 311 310 309 309 310 309 307 307 310 310 299 296 296 297 297 297 298 308 312 313 313 312 311 311 311 311 311 310 309 307 308 308 309 306 301 299 299 297 297 297 296 295 296 298 300 300 303 304 305 304
298 298 299 299 299 300 300 300 301 302 302 303 305 306 306 306 306 306 307 308 307 308 310 298 296 296 297 298 297 306 309 311 311 311 310 310 310 309 309 310 310 309 308 308 306 302 303 302 302 301 300 297 294 292 293 294 292 293 300 302 304 303 300
298 297 297 297 297 297 297 297 298 300 298 298 299 301 302 304 306 307 306 305 305 308 308 302 296 296 297 296 299 308 309 309 309 310 310 310 311 310 309 309 309 308 307 308 302 298 298 301 304 303 300 297 295 294 293 293 292 292 294 294 294 294 294
297 297 296 296 296 296 296 296 296 298 297 297 297 298 299 301 303 305 306 308 306 306 307 305 299 297 296 296 301 309 310 310 310 308 309 308 307 309 310 310 311 309 307 306 298 296 296 302 307 305 301 297 294 293 292 293 293 292 292 292 291 291 292
297 296 296 296 296 296 295 295 296 296 296 296 296 297 298 298 299 300 302 305 310 308 308 307 301 297 297 296 299 306 307 307 307 307 308 308 307 308 307 308 308 308 307 304 295 295 295 302 309 305 302 300 298 295 294 292 291 290 290 291 291 291 290
297 296 296 296 296 296 296 296 296 296 295 296 296 296 296 297 297 298 299 300 304 306 307 308 307 299 297 297 297 304 306 306 306 306 307 308 308 305 304 306 302 297 296 296 294 294 295 298 308 306 302 301 300 298 295 293 292 292 292 294 292 293 292
296 296 297 296 296 296 296 295 295 295 295 295 295 295 295 295 296 296 298 300 301 302 306 307 307 300 299 298 297 298 305 306 308 307 307 305 306 306 303 303 299 295 294 294 295 294 293 294 299 303 303 303 303 301 295 294 294 294 294 294 294 294 295
297 297 297 296 295 295 295 295 296 295 295 295 294 294 294 294 294 294 295 297 298 299 303 304 306 303 299 298 297 296 303 306 307 308 306 306 304 303 303 301 297 294 292 293 293 294 294 294 295 304 303 298 294 292 296 296 296 296 296 294 293 292 291
295 296 295 294 293 292 293 293 293 294 293 293 293 292 292 292 292 292 292 293 294 296 298 300 299 301 299 298 297 295 296 302 300 305 306 306 305 304 300 297 296 294 292 293 293 293 294 295 296 302 296 293 292 293 295 297 296 295 294 293 291 290 288
294 294 294 293 293 293 293 293 293 293 293 292 291 291 291 292 291 291 290 291 293 294 295 297 296 296 298 298 297 295 294 295 298 303 306 306 305 301 296 295 294 291 291 292 292 292 293 294 298 294 292 293 292 294 297 295 294 294 290 290 290 290 289
Wind_Speed
7 6 6 5 3 4 5 4 5 4 3 3 4 3 3 3 2 3 3 4 4 3 2 4 6 5 4 3 4 3 3 4 4 5 4 3 6 2 2 1 3 3 3 5 4 5 6 6 3 4 3 2 3 4 6 6 5 6 6 5 6 5 4
7 6 4 4 5 5 5 3 4 3 3 2 2 3 2 3 3 3 3 3 3 4 3 2 1 4 5 5 5 5 5 3 3 3 5 5 4 4 2 1 3 3 5 4 4 4 5 7 3 3 2 2 5 5 5 4 5 5 6 6 5 4 3
6 5 5 5 5 5 6 4 4 4 4 3 3 3 3 2 2 3 3 4 4 3 3 3 3 3 4 5 5 5 4 4 3 5 6 5 4 4 4 4 2 3 4 3 2 5 4 3 8 6 4 7 5 2 3 5 6 5 5 5 5 4 3
7 7 7 6 5 5 6 4 4 4 4 6 5 3 4 4 3 3 3 3 4 4 3 4 4 5 5 5 4 3 3 4 4 4 3 3 3 4 3 5 6 7 6 5 5 4 4 3 4 3 2 2 5 7 2 3 6 5 4 3 5 4 4
7 7 8 7 6 6 5 5 3 5 4 4 3 5 4 4 4 4 4 5 5 5 5 4 4 5 5 5 5 5 4 3 3 4 4 5 4 4 3 4 5 4 3 4 5 5 7 7 8 6 6 2 4 3 4 5 4 3 2 3 3 4 4
7 7 7 6 5 6 5 5 4 6 4 5 4 5 3 4 4 5 5 6 6 5 5 5 4 4 5 5 5 5 6 6 6 6 6 6 7 6 6 2 3 4 3 3 5 5 4 6 8 6 1 2 4 3 2 3 2 1 2 2 3 3 4
7 7 6 7 5 6 6 6 6 6 5 5 4 4 3 4 4 4 4 4 4 4 4 5 5 4 4 5 4 5 4 4 4 4 4 4 4 3 3 4 3 4 3 5 5 7 7 7 6 7 5 2 3 5 2 2 1 3 1 0 0 1 3
7 6 6 6 6 6 4 5 4 5 6 3 6 4 3 4 3 3 4 4 4 4 4 4 4 4 4 4 3 3 3 3 4 4 3 5 5 4 4 4 4 3 3 5 6 6 7 8 8 8 8 7 3 3 3 1 0 1 3 0 1 1 2
5 5 4 4 3 5 5 6 5 4 5 5 4 4 4 5 4 4 4 4 4 5 4 5 4 4 4 5 4 4 4 2 5 4 4 5 5 5 5 4 4 1 1 5 7 7 7 7 6 6 7 9 10 5 2 2 0 1 2 2 1 3 3
6 6 6 4 4 4 6 6 6 5 4 4 4 4 4 4 4 5 5 4 4 4 4 4 5 5 5 5 5 4 4 2 5 4 4 6 4 5 4 5 5 4 3 5 7 7 7 6 6 6 7 10 9 9 5 3 3 3 4 2 3 4 4
6 6 6 6 5 7 6 6 5 5 5 4 4 3 4 4 4 5 5 4 4 5 4 4 5 5 5 5 4 4 3 4 6 4 4 5 4 4 4 4 4 6 3 5 6 6 7 7 7 7 6 4 8 10 7 7 5 2 4 3 2 3 4
5 6 5 6 6 8 7 6 6 5 4 4 5 5 4 4 4 4 4 4 4 5 4 4 4 5 5 5 4 4 3 5 6 5 3 5 3 5 5 5 5 5 4 7 7 7 6 6 7 7 6 5 3 7 8 6 5 3 3 5 3 2 6
6 7 7 7 7 7 6 6 6 5 6 5 5 5 5 4 4 4 4 4 4 4 5 4 5 5 5 4 4 5 3 5 5 4 3 3 3 4 5 5 4 4 4 5 6 6 5 4 5 6 6 6 4 4 7 5 6 6 4 5 4 4 6
6 6 6 6 7 6 6 6 6 6 5 5 5 5 5 4 4 4 4 4 5 5 5 4 4 4 5 4 4 4 3 4 5 3 4 4 4 4 4 4 4 3 2 6 5 5 5 4 5 6 7 7 6 5 7 5 7 4 0 1 3 5 6
6 6 7 6 7 6 5 6 5 5 6 4 6 6 5 4 4 4 4 4 4 4 4 4 4 4 5 5 4 3 4 4 4 4 4 5 4 4 4 5 4 4 3 5 4 4 5 4 6 6 7 8 7 6 4 5 3 5 4 1 1 0 3
5 6 7 5 6 6 5 5 5 7 5 4 4 6 5 4 4 4 4 4 4 4 4 4 3 4 4 5 5 3 3 4 4 4 5 4 4 4 5 5 4 3 3 6 4 4 3 3 3 6 4 4 7 6 4 5 6 4 6 4 3 4 4
6 5 6 4 5 4 4 4 4 5 5 4 5 4 5 5 4 4 4 3 4 4 4 4 3 4 5 4 4 4 3 3 4 4 5 4 4 4 5 5 3 4 5 5 4 4 4 4 4 4 4 3 4 5 4 4 5 5 4 6 4 6 5
5 5 5 4 4 4 4 4 3 4 4 4 4 5 3 4 4 4 4 4 3 3 4 4 4 4 4 4 5 4 4 4 4 4 5 5 5 5 4 5 4 4 5 6 4 4 4 5 4 4 3 2 3 4 3 4 3 3 5 6 5 4 2
6 5 4 4 5 4 4 4 4 3 4 4 3 4 6 4 5 5 4 4 4 4 4 4 5 4 4 4 4 5 5 5 5 5 5 5 5 4 5 5 4 4 5 6 5 4 4 5 4 5 5 3 3 3 4 3 2 4 6 6 6 4 1
5 6 6 5 4 4 4 4 3 4 2 4 4 3 4 5 4 6 5 4 4 5 4 4 4 3 4 4 5 6 5 5 5 5 5 6 5 5 5 5 5 5 5 5 6 6 5 5 5 5 6 6 4 4 5 4 3 4 4 4 2 2 4
4 4 4 4 4 4 4 4 4 2 3 3 2 3 4 5 5 5 6 5 5 5 5 4 3 3 3 4 4 5 5 5 5 5 5 5 5 6 6 6 6 6 5 5 6 6 6 6 4 5 4 5 5 5 5 4 4 4 4 4 3 4 1
4 2 3 4 4 4 3 2 1 1 1 2 3 3 4 4 6 4 5 5 5 4 6 6 4 4 5 4 4 5 4 4 4 5 5 5 4 4 4 4 4 5 4 7 9 9 8 8 6 6 4 4 5 6 4 4 6 6 5 5 2 1 2
5 6 4 4 3 3 3 3 3 3 2 0 2 2 0 0 4 6 6 5 5 5 5 4 7 11 8 6 5 5 4 4 4 4 5 5 5 4 4 4 5 7 8 9 9 9 10 11 10 8 7 5 6 5 5 5 4 5 6 5 5 5 3
4 5 4 3 3 3 4 3 4 4 3 4 4 3 3 2 0 2 5 6 6 5 5 5 11 12 12 11 7 5 5 5 4 4 4 5 6 6 4 4 4 6 7 7 8 11 11 10 9 10 10 9 7 7 5 4 5 6 6 5 3 3 4
3 3 2 2 2 2 3 3 3 3 3 4 3 3 5 4 4 2 1 2 4 5 5 6 6 9 12 14 11 7 5 5 5 4 4 5 5 5 5 4 4 4 5 6 6 5 5 7 8 8 7 6 6 4 5 7 6 4 3 4 4 5 5
6 5 3 2 4 7 7 6 5 4 3 2 3 4 3 4 4 3 3 1 3 4 4 6 9 11 12 12 12 9 7 7 7 7 6 7 6 6 6 6 6 5 5 7 5 4 5 4 4 7 7 6 4 4 4 4 5 6 7 6 6 5 6
8 7 7 8 8 8 8 7 5 5 5 4 2 2 1 2 1 1 3 2 0 1 2 2 6 11 14 15 14 9 5 6 8 8 9 9 7 7 7 7 6 6 4 3 3 4 5 5 4 4 3 2 2 2 3 2 3 5 6 7 8 8 6
9 8 8 8 8 8 8 7 9 8 7 5 5 5 5 4 3 1 1 1 1 1 2 4 5 7 9 12 13 10 6 5 6 6 5 5 7 8 7 6 6 6 3 2 1 0 1 2 3 3 3 2 2 1 1 1 0 1 3 4 6 6 6
8 7 8 8 8 8 7 7 7 6 6 7 6 6 5 3 3 4 3 4 5 5 5 8 8 8 8 8 9 6 7 7 7 6 6 6 7 7 7 8 7 8 6 4 3 3 4 4 3 4 5 3 2 1 1 2 4 4 2 3 5 7 6
9 8 7 8 8 8 7 8 7 6 6 6 6 6 4 4 4 4 3 3 4 5 6 8 10 11 10 10 6 6 5 6 6 7 8 7 7 6 5 4 4 4 5 6 10 12 12 12 7 6 5 3 2 2 1 2 5 7 6 8 11 11 11
8 6 6 7 6 5 5 4 5 4 6 6 6 5 4 5 5 4 4 4 3 5 6 8 10 11 11 10 9 6 7 6 8 6 6 5 5 6 7 10 8 6 6 6 11 12 14 13 8 7 7 6 5 5 3 0 2 4 8 8 9 9 9
8 8 7 6 5 5 4 4 3 4 4 4 4 4 4 4 5 4 4 4 6 5 7 9 11 12 13 12 8 6 6 6 6 8 8 8 7 6 5 8 13 12 9 9 12 13 15 13 8 9 9 9 9 8 7 6 4 5 4 4 3 4 3
8 8 8 8 8 7 5 6 7 6 5 5 5 5 5 5 6 6 5 4 4 4 5 8 9 12 13 14 12 8 6 6 7 9 8 8 8 6 6 6 5 7 7 10 13 14 14 15 10 9 8 9 9 8 7 7 5 6 6 6 6 3 4
8 8 7 7 7 6 6 6 6 7 7 6 7 8 8 7 7 8 8 7 6 5 5 7 8 13 14 15 14 10 7 9 9 9 9 9 8 8 7 7 7 6 10 11 14 14 11 13 8 7 10 10 10 8 11 7 7 6 5 4 4 4 5
5 5 5 6 6 6 6 6 6 7 6 6 7 7 6 7 7 8 8 7 7 8 7 7 7 12 14 16 16 15 9 10 11 9 9 8 8 7 8 8 7 8 11 11 12 12 13 13 13 9 9 8 7 13 11 6 5 5 5 5 5 5 5
5 4 5 5 5 6 6 6 7 7 7 6 6 6 6 6 6 7 7 8 7 7 8 9 11 10 13 15 16 14 16 13 14 10 9 10 10 9 7 7 7 10 13 13 13 15 15 17 13 10 14 14 16 17 12 7 6 6 5 5 6 6 6
5 6 6 6 6 7 7 6 6 6 6 6 6 5 6 5 6 6 7 8 8 8 8 8 11 14 13 16 16 15 16 18 16 11 10 10 8 7 7 7 8 10 11 12 12 12 12 13 9 13 15 16 17 14 9 8 6 6 6 7 7 7 6
Wind_Direction
146 154 158 154 118 128 125 132 132 144 152 164 163 161 145 149 145 152 152 147 149 167 159 159 159 163 152 129 139 143 145 155 157 154 168 173 159 229 351 20 55 95 99 93 106 138 133 120 69 22 42 39 84 80 94 106 105 102 97 82 79 68 57
128 132 120 104 116 126 116 108 98 103 110 126 147 148 153 159 154 162 153 151 156 161 150 103 103 148 155 139 137 141 162 165 136 136 147 181 157 165 117 24 56 71 73 82 112 94 128 121 92 131 131 22 58 54 86 96 99 96 98 101 96 98 95
110 104 107 112 114 118 114 107 108 107 109 92 114 139 124 130 126 143 157 169 170 147 145 155 129 128 140 156 168 166 158 149 153 156 172 171 165 160 165 157 121 95 81 80 70 96 56 47 145 167 165 141 120 44 108 113 103 90 98 102 106 111 102
126 120 109 103 111 107 115 119 110 107 102 110 109 101 115 128 116 106 105 110 133 142 125 131 144 144 149 155 155 140 147 155 171 161 134 161 144 162 175 164 164 163 162 157 166 147 136 123 100 124 108 127 129 104 36 88 101 113 113 120 121 111 108
132 128 127 134 134 130 130 118 106 93 85 80 75 72 50 70 83 74 79 88 101 112 124 132 127 134 140 132 133 140 159 173 163 162 156 154 158 171 183 180 178 138 119 135 157 142 140 156 142 151 146 125 73 71 118 79 54 68 102 114 114 122 119
127 129 132 133 140 131 132 124 118 113 109 89 76 76 74 90 97 90 86 98 106 116 131 127 127 130 131 128 131 132 144 156 173 166 171 174 167 172 187 174 150 138 155 134 125 129 111 123 136 135 136 90 134 107 114 121 117 62 73 87 130 130 134
134 135 143 144 152 141 145 147 145 142 128 128 108 107 126 99 79 102 102 88 97 112 119 124 129 134 126 122 125 131 134 148 150 157 153 159 166 159 147 146 164 181 185 133 141 132 137 123 132 138 131 47 87 123 111 56 169 90 351 59 89 149 146
142 142 154 152 147 140 146 136 134 129 121 134 122 136 115 100 103 85 86 94 98 105 106 110 116 112 105 97 93 107 97 109 118 123 131 140 144 151 155 156 173 199 197 157 153 158 154 157 155 158 139 122 74 77 110 79 51 37 177 219 160 219 203
130 126 130 138 136 133 143 134 139 137 133 126 126 117 105 110 100 79 67 77 99 105 105 112 109 102 101 99 92 92 87 76 102 101 128 123 129 137 138 124 104 173 209 163 170 158 169 164 153 148 147 140 142 138 77 105 33 27 144 119 247 208 224
129 138 146 135 122 124 129 132 133 139 128 124 123 114 108 97 103 95 82 78 86 99 96 99 107 109 108 109 115 107 95 84 96 107 111 101 113 116 125 154 136 132 127 146 160 160 149 130 141 155 167 153 150 138 152 144 200 160 226 187 151 225 189
132 127 128 128 128 117 120 123 123 125 137 137 120 112 106 103 98 96 91 79 90 92 99 100 106 109 104 102 110 108 131 114 97 89 99 114 129 128 117 85 82 76 84 114 131 136 137 143 148 170 187 168 152 152 160 150 198 202 185 214 168 174 184
121 120 119 124 125 124 132 136 135 140 127 124 113 110 104 102 97 84 90 89 96 104 104 111 111 108 112 108 101 101 87 99 105 108 126 117 129 102 92 83 78 78 74 99 108 115 117 129 157 173 171 152 191 149 144 136 133 236 152 189 236 203 171
129 128 134 130 129 133 140 137 135 132 143 128 124 125 121 119 112 104 93 104 102 107 113 116 113 115 109 114 116 103 102 102 107 117 100 74 96 89 89 80 68 89 85 95 98 108 120 133 148 146 148 140 118 125 122 123 138 176 206 181 193 187 178
127 126 124 127 128 138 144 143 144 145 127 131 132 127 127 130 129 126 116 117 126 125 123 118 112 111 112 114 110 118 109 104 109 111 104 75 69 82 81 84 68 48 77 97 112 113 110 125 112 118 131 128 133 147 130 133 135 141 50 192 154 182 197
130 126 122 129 133 143 146 143 146 138 138 156 138 139 140 147 134 128 118 115 126 128 129 130 123 113 117 118 119 117 114 100 103 103 103 98 83 88 99 97 85 69 71 91 87 90 118 110 113 113 131 141 149 161 176 113 146 133 169 223 180 72 177
131 129 125 132 136 142 145 146 148 143 146 153 147 146 150 147 144 134 127 127 127 131 140 144 131 116 127 136 141 137 118 119 124 125 117 125 118 109 93 98 104 100 89 76 67 69 75 106 119 120 128 132 146 167 193 152 134 142 160 205 189 165 194
127 126 126 135 135 145 146 148 149 145 149 140 140 159 145 146 145 143 144 149 129 129 143 145 128 136 144 150 152 158 141 140 145 149 149 148 142 121 120 106 116 102 90 81 70 75 77 92 97 105 121 149 153 170 181 165 156 136 164 166 232 189 201
127 126 128 131 141 150 146 145 151 149 145 136 141 133 127 139 140 145 157 169 136 145 163 153 140 154 157 164 166 160 166 163 160 160 161 163 160 142 137 134 153 117 104 102 95 97 95 97 111 113 130 163 178 170 162 164 155 126 140 177 205 235 186
126 125 137 153 162 168 161 155 160 150 153 142 145 139 144 165 161 165 175 172 154 172 172 165 156 157 158 169 175 166 172 171 169 165 166 169 167 162 154 163 176 150 134 132 149 151 140 134 131 126 135 156 164 145 157 175 161 150 161 181 183 218 244
136 156 167 171 167 164 172 182 171 176 152 139 146 163 144 165 183 165 180 164 163 172 183 178 154 155 148 161 171 169 172 164 175 176 179 177 179 177 170 172 179 176 164 156 153 160 154 150 140 140 146 151 152 142 147 161 141 133 156 167 221 218 213
292 176 166 158 165 175 177 182 202 153 115 121 147 191 164 171 170 163 167 176 176 170 167 174 168 166 172 170 172 175 171 166 177 190 193 198 188 188 187 185 184 186 178 171 163 169 155 158 151 145 167 138 145 137 146 138 116 122 138 158 177 209 209
333 324 150 155 157 177 187 197 108 82 113 156 187 193 190 165 141 155 162 172 173 177 162 177 183 175 173 186 186 189 190 180 170 183 198 207 211 208 206 199 200 200 197 183 180 170 176 161 153 161 196 149 137 135 142 146 149 138 130 132 136 55 80
93 9 335 124 150 136 129 118 114 103 92 139 154 148 105 263 164 161 161 176 178 182 186 182 189 186 179 180 191 198 196 196 179 177 188 200 211 210 205 198 205 205 197 184 181 187 180 170 172 166 183 176 162 153 160 152 160 160 151 150 175 154 137
70 81 337 327 98 109 111 105 96 99 86 84 84 91 112 104 100 200 178 170 183 197 206 205 202 193 195 191 183 196 201 212 201 190 195 191 200 204 212 207 199 195 183 177 181 182 172 168 171 182 182 188 179 167 164 173 189 169 167 171 174 152 161
102 115 106 317 332 94 99 81 83 97 88 80 87 79 75 77 65 68 114 147 181 206 217 230 226 227 214 205 200 192 194 204 207 205 202 201 203 194 200 204 219 202 196 187 179 175 148 135 139 139 136 133 129 140 170 169 182 198 168 149 167 189 158
80 77 90 68 40 34 26 27 16 32 71 119 53 55 89 96 81 41 52 106 207 214 216 222 208 207 229 239 230 209 195 201 200 207 203 200 200 201 194 196 205 217 215 211 191 170 159 141 121 130 134 126 111 118 126 158 184 185 173 166 170 186 182
45 38 38 44 47 48 46 37 32 31 6 3 49 104 68 61 67 95 111 114 122 333 260 249 234 221 214 220 227 227 238 214 210 204 202 198 197 202 203 196 199 211 234 228 218 191 172 158 150 135 127 114 119 94 95 96 116 150 173 178 170 183 207
43 38 34 36 40 39 36 28 29 18 25 26 11 358 352 341 319 259 201 161 160 235 249 218 219 231 239 231 225 211 231 240 235 230 209 189 188 194 196 186 187 195 177 158 160 124 268 185 137 123 108 93 74 39 33 31 10 142 150 151 167 153 147
39 37 35 33 36 35 32 28 19 4 14 14 9 11 3 0 305 293 261 231 221 240 236 210 215 220 207 216 213 207 209 217 220 221 204 196 195 198 190 186 186 191 183 170 201 190 156 121 144 149 150 144 110 25 11 332 301 284 266 168 145 141 141
37 30 33 34 30 27 25 15 9 6 15 7 7 3 342 316 300 291 266 223 235 251 260 242 224 226 212 196 174 199 209 214 211 213 212 210 210 207 204 208 222 211 184 191 177 176 168 160 176 180 150 130 118 94 14 345 14 57 109 125 123 126 135
38 32 35 38 32 21 16 19 17 7 15 358 358 349 322 319 314 301 296 288 236 244 265 266 250 244 241 214 195 202 219 215 228 235 248 251 246 230 217 211 215 235 225 205 191 190 180 176 182 179 155 152 150 163 203 302 35 48 62 78 97 117 139
28 20 21 20 25 24 26 18 4 16 14 8 354 337 345 337 327 319 298 280 291 267 265 269 256 246 244 238 213 218 214 214 224 229 231 237 231 224 226 219 217 217 213 204 194 197 191 187 185 173 173 168 173 179 181 181 164 124 112 110 93 107 92
14 13 9 7 10 12 5 12 11 9 5 6 356 352 352 354 344 330 323 311 293 257 261 267 270 259 246 244 226 212 205 204 221 230 227 229 230 228 222 225 210 198 195 190 196 199 198 192 188 188 163 174 171 195 178 174 191 159 165 162 166 142 128
11 7 8 5 1 3 5 3 358 3 358 355 358 354 353 350 348 342 340 338 333 313 273 268 269 257 253 251 240 207 217 215 224 225 230 226 224 221 215 223 216 193 191 203 213 212 208 216 216 149 170 182 200 178 153 166 188 189 162 153 137 125 99
14 8 6 10 8 360 348 350 351 352 352 354 354 350 348 355 356 349 346 348 348 339 330 314 292 286 271 257 247 216 216 224 218 221 230 234 227 221 216 214 214 201 193 197 204 208 206 202 199 165 185 176 122 134 158 156 153 158 141 128 109 77 72
12 8 4 4 9 3 352 356 351 354 356 353 354 353 354 359 357 347 340 337 337 334 332 331 323 311 295 280 269 244 226 227 226 217 219 230 225 221 205 204 208 197 196 194 196 198 199 198 188 184 172 155 158 159 147 144 146 143 127 111 101 104 110
7 3 2 4 8 11 1 359 1 2 360 1 357 356 345 349 349 346 339 326 329 328 324 323 317 313 308 296 279 255 242 237 231 216 217 226 224 202 191 200 193 187 190 188 188 189 194 182 178 179 167 162 157 154 136 135 143 140 126 114 113 114 115